sat.trackr.live / text

‹ back to catalog

STARLINK-5187

NORAD 54065 · 2022-136Q

PAYLOAD ACTIVE UNKNOWN

§ Identity

Operator
Country
US
Launch date
2022-10-20
Launch site
AFETR
Launch vehicle
Mass (kg)
RCS (m²)

Purposes: comms

External: N2YO · Heavens-Above · Gunter

§ Orbital elements

Epoch: 2026-09-20T06:24:36.785952Z

Period
93.79 min
Inclination
53.1607°
Eccentricity
0.0001374
Mean motion
15.35401055 rev/d
Perigee alt
458.8 km
Apogee alt
460.7 km
Semi-major
6,837.9 km
B*
5.4216e-5
RAAN
179.0882°
Arg perigee
91.2980°
Mean anomaly
268.8181°
Rev number
21,637

§ Raw data

STARLINK-51871 54065U 22136Q   26263.26709243  .00001511  00000+0  54216-4 0  99952 54065  53.1607 179.0882 0001374  91.2980 268.8181 15.35401055216375

JSON: /api/v1/satellites/54065 · /tle

For live sub-satellite position, see the globe view (requires WebGL).

§ Visibility from observer

Set your observer location to see the next 7 days of passes ≥ 10°. The values pass through the URL so the page stays shareable.

No JS? Fill the form by hand. The geolocation button needs JavaScript.